When you browse on this site, cookies collect data to enhance your experience and personalize the content and advertising you see.
Visit our Privacy Policy to learn more. By continuing to use the site, you agree to this use of cookies and data.
  • In Hungary
  • List of Countries
  • For 7 days
  • Water Temperature
  • Satellite Maps
  • Weather Map
  • News
  • Weather Widgets
  • user-avatar
    Login

    Hourly Weather Medianeira

    Today, 18 January, Friday

    Time Temperature Precipitation Wind Pressure Humidity
    00:00 +27°C° 0 mm 2 mps 724 mmHg 75%
    01:00 +27°C° 0 mm 2 mps 724 mmHg 75%
    02:00 +26°C° 0 mm 1 mps 724 mmHg 75%
    03:00 +26°C° 0.1 mm 2 mps 724 mmHg 78%
    04:00 +26°C° 0.1 mm 2 mps 724 mmHg 80%
    05:00 +25°C° 0.1 mm 2 mps 724 mmHg 83%
    06:00 +27°C° 0.1 mm 2 mps 724 mmHg 78%
    07:00 +29°C° 0.1 mm 3 mps 725 mmHg 73%
    08:00 +31°C° 0.1 mm 3 mps 725 mmHg 68%
    09:00 +33°C° 0.7 mm 3 mps 725 mmHg 66%
    10:00 +34°C° 0.7 mm 3 mps 725 mmHg 63%
    11:00 +35°C° 0.7 mm 3 mps 725 mmHg 61%
    12:00 +35°C° 0.4 mm 3 mps 725 mmHg 57%
    13:00 +36°C° 0.4 mm 3 mps 724 mmHg 52%
    14:00 +36°C° 0.4 mm 2 mps 723 mmHg 48%
    15:00 +36°C° 0 mm 2 mps 723 mmHg 49%
    16:00 +36°C° 0 mm 2 mps 723 mmHg 50%
    17:00 +35°C° 0 mm 2 mps 723 mmHg 52%
    18:00 +31°C° 1.7 mm 1 mps 723 mmHg 65%
    19:00 +29°C° 1.7 mm 1 mps 723 mmHg 78%
    20:00 +24°C° 1.7 mm 0 mps 723 mmHg 91%
    21:00 +23°C° 1.8 mm 0 mps 723 mmHg 93%
    22:00 +23°C° 1.8 mm 0 mps 724 mmHg 94%
    23:00 +23°C° 1.8 mm 0 mps 724 mmHg 96%

    Tomorrow, 19 January, Saturday

    Time Temperature Precipitation Wind Pressure Humidity
    00:00 +23°C° 0 mm 0 mps 723 mmHg 96%
    01:00 +24°C° 0 mm 1 mps 723 mmHg 97%
    02:00 +24°C° 0 mm 1 mps 723 mmHg 98%
    03:00 +24°C° 0.5 mm 1 mps 723 mmHg 98%
    04:00 +22°C° 0.5 mm 0 mps 723 mmHg 98%
    05:00 +22°C° 0.5 mm 0 mps 723 mmHg 98%
    06:00 +24°C° 0.5 mm 1 mps 724 mmHg 97%
    07:00 +25°C° 0.5 mm 1 mps 724 mmHg 96%
    08:00 +25°C° 0.5 mm 1 mps 725 mmHg 94%
    09:00 +26°C° 0.1 mm 1 mps 725 mmHg 90%
    10:00 +27°C° 0.1 mm 2 mps 725 mmHg 85%
    11:00 +28°C° 0.1 mm 2 mps 725 mmHg 81%
    12:00 +29°C° 0 mm 2 mps 724 mmHg 74%
    13:00 +31°C° 0 mm 2 mps 724 mmHg 66%
    14:00 +32°C° 0 mm 2 mps 724 mmHg 59%
    15:00 +32°C° 0.2 mm 2 mps 723 mmHg 61%
    16:00 +31°C° 0.2 mm 2 mps 723 mmHg 62%
    17:00 +31°C° 0.2 mm 2 mps 723 mmHg 64%
    18:00 +29°C° 0 mm 2 mps 723 mmHg 68%
    19:00 +28°C° 0 mm 1 mps 723 mmHg 73%
    20:00 +26°C° 0 mm 1 mps 723 mmHg 77%
    21:00 +25°C° 0 mm 1 mps 724 mmHg 80%
    22:00 +25°C° 0 mm 1 mps 724 mmHg 83%
    23:00 +22°C° 0 mm 0 mps 724 mmHg 86%

    Day after tomorrow, 20 January, Sunday

    Time Temperature Precipitation Wind Pressure Humidity
    00:00 +22°C° 0 mm 0 mps 723 mmHg 89%
    01:00 +21°C° 0 mm 0 mps 723 mmHg 92%
    02:00 +21°C° 0 mm 0 mps 722 mmHg 94%
    03:00 +21°C° 0 mm 0 mps 722 mmHg 95%
    04:00 +20°C° 0 mm 0 mps 722 mmHg 96%
    05:00 +20°C° 0 mm 0 mps 722 mmHg 97%
    06:00 +23°C° 0 mm 0 mps 723 mmHg 87%
    07:00 +25°C° 0 mm 0 mps 724 mmHg 77%
    08:00 +30°C° 0 mm 1 mps 724 mmHg 67%
    09:00 +31°C° 0.2 mm 1 mps 724 mmHg 63%
    10:00 +32°C° 0.2 mm 1 mps 724 mmHg 59%
    11:00 +34°C° 0.2 mm 1 mps 724 mmHg 55%
    12:00 +34°C° 0.6 mm 1 mps 723 mmHg 55%
    13:00 +34°C° 0.6 mm 1 mps 723 mmHg 55%
    14:00 +34°C° 0.6 mm 1 mps 723 mmHg 54%
    15:00 +33°C° 0.6 mm 1 mps 722 mmHg 58%
    16:00 +32°C° 0.6 mm 1 mps 722 mmHg 62%
    17:00 +32°C° 0.6 mm 1 mps 722 mmHg 66%
    18:00 +30°C° 0.2 mm 1 mps 722 mmHg 72%
    19:00 +28°C° 0.2 mm 2 mps 722 mmHg 78%
    20:00 +27°C° 0.2 mm 2 mps 723 mmHg 84%
    21:00 +26°C° 0 mm 2 mps 723 mmHg 86%
    22:00 +26°C° 0 mm 2 mps 723 mmHg 87%
    23:00 +25°C° 0 mm 2 mps 723 mmHg 89%

    21 January, Monday

    Time Temperature Precipitation Wind Pressure Humidity
    00:00 +25°C° 0 mm 2 mps 723 mmHg 90%
    01:00 +25°C° 0 mm 1 mps 722 mmHg 91%
    02:00 +24°C° 0 mm 1 mps 722 mmHg 92%
    03:00 +24°C° 0 mm 1 mps 722 mmHg 93%
    04:00 +24°C° 0 mm 1 mps 723 mmHg 93%
    05:00 +23°C° 0 mm 1 mps 723 mmHg 94%
    06:00 +26°C° 0 mm 1 mps 723 mmHg 84%
    07:00 +28°C° 0 mm 1 mps 724 mmHg 75%
    08:00 +30°C° 0 mm 2 mps 725 mmHg 65%
    09:00 +32°C° 0.1 mm 2 mps 725 mmHg 59%
    10:00 +35°C° 0.1 mm 2 mps 725 mmHg 53%
    11:00 +36°C° 0.1 mm 2 mps 725 mmHg 47%
    12:00 +37°C° 0 mm 2 mps 724 mmHg 45%
    13:00 +37°C° 0 mm 2 mps 723 mmHg 43%
    14:00 +38°C° 0 mm 2 mps 723 mmHg 41%
    15:00 +36°C° 0 mm 1 mps 723 mmHg 44%
    16:00 +35°C° 0 mm 1 mps 722 mmHg 48%
    17:00 +35°C° 0 mm 1 mps 722 mmHg 51%
    18:00 +33°C° 0 mm 1 mps 722 mmHg 58%
    19:00 +31°C° 0 mm 1 mps 723 mmHg 64%
    20:00 +29°C° 0 mm 2 mps 723 mmHg 70%
    21:00 +28°C° 0 mm 2 mps 723 mmHg 72%
    22:00 +28°C° 0 mm 2 mps 723 mmHg 74%
    23:00 +27°C° 0 mm 2 mps 724 mmHg 76%

    22 January, Tuesday

    Time Temperature Precipitation Wind Pressure Humidity
    00:00 +27°C° 0 mm 2 mps 723 mmHg 78%
    01:00 +27°C° 0 mm 2 mps 723 mmHg 80%
    02:00 +26°C° 0 mm 2 mps 723 mmHg 81%
    03:00 +26°C° 0 mm 1 mps 723 mmHg 84%
    04:00 +25°C° 0 mm 1 mps 723 mmHg 87%
    05:00 +25°C° 0 mm 1 mps 724 mmHg 90%
    06:00 +27°C° 0 mm 1 mps 724 mmHg 82%
    07:00 +29°C° 0 mm 1 mps 725 mmHg 73%
    08:00 +31°C° 0 mm 1 mps 725 mmHg 65%
    09:00 +33°C° 0.3 mm 1 mps 725 mmHg 57%
    10:00 +36°C° 0.3 mm 2 mps 725 mmHg 50%
    11:00 +38°C° 0.3 mm 2 mps 725 mmHg 42%
    12:00 +39°C° 0 mm 2 mps 724 mmHg 41%
    13:00 +39°C° 0 mm 2 mps 724 mmHg 39%
    14:00 +40°C° 0 mm 2 mps 724 mmHg 37%
    15:00 +38°C° 0.1 mm 2 mps 723 mmHg 42%
    16:00 +37°C° 0.1 mm 2 mps 723 mmHg 46%
    17:00 +36°C° 0.1 mm 2 mps 723 mmHg 51%
    18:00 +34°C° 0.1 mm 2 mps 723 mmHg 58%
    19:00 +31°C° 0.1 mm 2 mps 723 mmHg 66%
    20:00 +29°C° 0.1 mm 2 mps 723 mmHg 73%
    21:00 +29°C° 0 mm 2 mps 723 mmHg 75%
    22:00 +28°C° 0 mm 2 mps 723 mmHg 76%
    23:00 +28°C° 0 mm 2 mps 724 mmHg 78%

    23 January, Wednesday

    Time Temperature Precipitation Wind Pressure Humidity
    00:00 +28°C° 0 mm 2 mps 723 mmHg 79%
    01:00 +27°C° 0 mm 1 mps 723 mmHg 81%
    02:00 +27°C° 0 mm 1 mps 723 mmHg 83%
    03:00 +26°C° 0 mm 1 mps 723 mmHg 84%
    04:00 +26°C° 0 mm 1 mps 724 mmHg 86%
    05:00 +25°C° 0 mm 1 mps 724 mmHg 87%
    06:00 +27°C° 0.1 mm 1 mps 724 mmHg 80%
    07:00 +29°C° 0.1 mm 1 mps 725 mmHg 73%
    08:00 +31°C° 0.1 mm 2 mps 725 mmHg 66%
    09:00 +34°C° 0.1 mm 2 mps 725 mmHg 59%
    10:00 +36°C° 0.1 mm 2 mps 725 mmHg 52%
    11:00 +38°C° 0.1 mm 2 mps 724 mmHg 45%
    12:00 +38°C° 0 mm 2 mps 724 mmHg 43%
    13:00 +39°C° 0 mm 2 mps 723 mmHg 42%
    14:00 +39°C° 0 mm 2 mps 723 mmHg 40%
    15:00 +38°C° 0 mm 2 mps 723 mmHg 44%
    16:00 +37°C° 0 mm 2 mps 722 mmHg 48%
    17:00 +36°C° 0 mm 2 mps 722 mmHg 52%
    18:00 +34°C° 0.6 mm 2 mps 722 mmHg 61%
    19:00 +31°C° 0.6 mm 2 mps 723 mmHg 70%
    20:00 +28°C° 0.6 mm 3 mps 723 mmHg 79%
    21:00 +28°C° 0.3 mm 2 mps 723 mmHg 83%
    22:00 +27°C° 0.3 mm 2 mps 723 mmHg 86%
    23:00 +26°C° 0.3 mm 2 mps 723 mmHg 90%
    Show more